• In Russia
  • List of Countries
  • For 7 days
  • Water Temperature
  • Satellite Maps
  • Weather Map
  • Weather Widgets
  • user-avatar
    Login

    Hourly Weather Tirana

    Today, 21 January, Sunday

    Time Temperature Precipitation Wind Pressure Humidity
    00:00 +7°C° 0 mm 2 mps 751 mmHg 92%
    01:00 +7°C° 0 mm 2 mps 750 mmHg 92%
    02:00 +7°C° 0 mm 2 mps 750 mmHg 91%
    03:00 +7°C° 0 mm 3 mps 750 mmHg 90%
    04:00 +7°C° 0 mm 3 mps 749 mmHg 89%
    05:00 +6°C° 0.2 mm 4 mps 749 mmHg 89%
    06:00 +7°C° 0.2 mm 4 mps 748 mmHg 88%
    07:00 +7°C° 0.2 mm 5 mps 748 mmHg 88%
    08:00 +8°C° 0.2 mm 5 mps 747 mmHg 85%
    09:00 +9°C° 0.2 mm 6 mps 747 mmHg 83%
    10:00 +10°C° 0.2 mm 6 mps 746 mmHg 80%
    11:00 +10°C° 0.6 mm 6 mps 745 mmHg 79%
    12:00 +11°C° 0.6 mm 7 mps 745 mmHg 79%
    13:00 +11°C° 0.6 mm 7 mps 744 mmHg 78%
    14:00 +10°C° 2.2 mm 7 mps 743 mmHg 84%
    15:00 +9°C° 2.2 mm 7 mps 743 mmHg 90%
    16:00 +8°C° 2.2 mm 6 mps 743 mmHg 96%
    17:00 +8°C° 1.4 mm 6 mps 743 mmHg 95%
    18:00 +8°C° 1.4 mm 6 mps 743 mmHg 94%
    19:00 +8°C° 1.4 mm 6 mps 743 mmHg 93%
    20:00 +8°C° 0.3 mm 6 mps 743 mmHg 92%
    21:00 +8°C° 0.3 mm 6 mps 744 mmHg 92%
    22:00 +8°C° 0.3 mm 6 mps 744 mmHg 92%
    23:00 +6°C° 0.2 mm 7 mps 745 mmHg 90%

    Tomorrow, 22 January, Monday

    Time Temperature Precipitation Wind Pressure Humidity
    00:00 +6°C° 0.2 mm 7 mps 745 mmHg 88%
    01:00 +5°C° 0.2 mm 7 mps 746 mmHg 86%
    02:00 +4°C° 0 mm 7 mps 746 mmHg 85%
    03:00 +4°C° 0 mm 7 mps 747 mmHg 83%
    04:00 +3°C° 0 mm 7 mps 747 mmHg 81%
    05:00 +2°C° 0 mm 7 mps 748 mmHg 80%
    06:00 +2°C° 0 mm 7 mps 748 mmHg 78%
    07:00 +2°C° 0 mm 7 mps 749 mmHg 77%
    08:00 +3°C° 0 mm 7 mps 750 mmHg 70%
    09:00 +4°C° 0 mm 7 mps 750 mmHg 64%
    10:00 +5°C° 0 mm 7 mps 750 mmHg 57%
    11:00 +7°C° 0 mm 6 mps 750 mmHg 55%
    12:00 +7°C° 0 mm 6 mps 750 mmHg 52%
    13:00 +7°C° 0 mm 6 mps 750 mmHg 50%
    14:00 +7°C° 0 mm 5 mps 751 mmHg 54%
    15:00 +7°C° 0 mm 5 mps 751 mmHg 57%
    16:00 +6°C° 0 mm 5 mps 751 mmHg 60%
    17:00 +5°C° 0 mm 4 mps 752 mmHg 62%
    18:00 +4°C° 0 mm 4 mps 753 mmHg 65%
    19:00 +3°C° 0 mm 4 mps 753 mmHg 68%
    20:00 +3°C° 0 mm 4 mps 753 mmHg 66%
    21:00 +3°C° 0 mm 4 mps 754 mmHg 65%
    22:00 +3°C° 0 mm 3 mps 754 mmHg 63%
    23:00 +3°C° 0 mm 3 mps 754 mmHg 62%

    Day after tomorrow, 23 January, Tuesday

    Time Temperature Precipitation Wind Pressure Humidity
    00:00 +3°C° 0 mm 3 mps 754 mmHg 60%
    01:00 +4°C° 0 mm 2 mps 754 mmHg 59%
    02:00 +4°C° 0 mm 2 mps 754 mmHg 58%
    03:00 +4°C° 0 mm 2 mps 754 mmHg 57%
    04:00 +4°C° 0 mm 2 mps 754 mmHg 57%
    05:00 +4°C° 0 mm 2 mps 755 mmHg 57%
    06:00 +4°C° 0 mm 2 mps 755 mmHg 57%
    07:00 +4°C° 0 mm 2 mps 756 mmHg 57%
    08:00 +5°C° 0 mm 2 mps 756 mmHg 54%
    09:00 +7°C° 0 mm 2 mps 756 mmHg 50%
    10:00 +8°C° 0 mm 3 mps 757 mmHg 47%
    11:00 +9°C° 0 mm 3 mps 757 mmHg 45%
    12:00 +10°C° 0 mm 3 mps 757 mmHg 44%
    13:00 +11°C° 0 mm 3 mps 757 mmHg 42%
    14:00 +10°C° 0 mm 3 mps 757 mmHg 47%
    15:00 +10°C° 0 mm 3 mps 757 mmHg 52%
    16:00 +9°C° 0 mm 3 mps 758 mmHg 56%
    17:00 +7°C° 0 mm 4 mps 758 mmHg 59%
    18:00 +6°C° 0 mm 4 mps 759 mmHg 61%
    19:00 +3°C° 0 mm 5 mps 759 mmHg 64%
    20:00 +3°C° 0 mm 5 mps 760 mmHg 64%
    21:00 +3°C° 0 mm 5 mps 760 mmHg 64%
    22:00 +2°C° 0 mm 5 mps 761 mmHg 64%
    23:00 +2°C° 0 mm 5 mps 761 mmHg 64%

    24 January, Wednesday

    Time Temperature Precipitation Wind Pressure Humidity
    00:00 +2°C° 0 mm 5 mps 761 mmHg 63%
    01:00 +2°C° 0 mm 5 mps 762 mmHg 62%
    02:00 +1°C° 0 mm 5 mps 762 mmHg 61%
    03:00 +1°C° 0 mm 5 mps 762 mmHg 60%
    04:00 +1°C° 0 mm 5 mps 762 mmHg 58%
    05:00 +1°C° 0 mm 5 mps 763 mmHg 57%
    06:00 +1°C° 0 mm 4 mps 763 mmHg 56%
    07:00 +1°C° 0 mm 4 mps 763 mmHg 54%
    08:00 +3°C° 0 mm 4 mps 764 mmHg 49%
    09:00 +5°C° 0 mm 4 mps 764 mmHg 44%
    10:00 +7°C° 0 mm 3 mps 764 mmHg 39%
    11:00 +8°C° 0 mm 3 mps 764 mmHg 36%
    12:00 +9°C° 0 mm 3 mps 764 mmHg 34%
    13:00 +10°C° 0 mm 2 mps 763 mmHg 31%
    14:00 +9°C° 0 mm 2 mps 763 mmHg 36%
    15:00 +9°C° 0 mm 2 mps 763 mmHg 42%
    16:00 +8°C° 0 mm 2 mps 763 mmHg 47%
    17:00 +7°C° 0 mm 3 mps 763 mmHg 49%
    18:00 +5°C° 0 mm 3 mps 764 mmHg 52%
    19:00 +4°C° 0 mm 3 mps 764 mmHg 54%
    20:00 +3°C° 0 mm 3 mps 764 mmHg 54%
    21:00 +3°C° 0 mm 3 mps 764 mmHg 55%
    22:00 +3°C° 0 mm 3 mps 764 mmHg 55%
    23:00 +3°C° 0 mm 3 mps 764 mmHg 55%

    25 January, Thursday

    Time Temperature Precipitation Wind Pressure Humidity
    00:00 +4°C° 0 mm 2 mps 763 mmHg 54%
    01:00 +4°C° 0 mm 2 mps 763 mmHg 53%
    02:00 +3°C° 0 mm 2 mps 763 mmHg 52%
    03:00 +3°C° 0 mm 2 mps 763 mmHg 51%
    04:00 +3°C° 0 mm 2 mps 762 mmHg 50%
    05:00 +3°C° 0 mm 2 mps 762 mmHg 48%
    06:00 +3°C° 0 mm 2 mps 762 mmHg 47%
    07:00 +3°C° 0 mm 2 mps 762 mmHg 45%
    08:00 +6°C° 0 mm 1 mps 762 mmHg 41%
    09:00 +8°C° 0 mm 1 mps 762 mmHg 36%
    10:00 +10°C° 0 mm 1 mps 762 mmHg 32%
    11:00 +11°C° 0 mm 1 mps 761 mmHg 31%
    12:00 +10°C° 0 mm 2 mps 760 mmHg 30%
    13:00 +12°C° 0 mm 2 mps 760 mmHg 29%
    14:00 +10°C° 0 mm 2 mps 759 mmHg 36%
    15:00 +10°C° 0 mm 2 mps 759 mmHg 42%
    16:00 +9°C° 0 mm 2 mps 759 mmHg 49%
    17:00 +8°C° 0 mm 2 mps 759 mmHg 50%
    18:00 +7°C° 0 mm 2 mps 759 mmHg 51%
    19:00 +5°C° 0 mm 2 mps 759 mmHg 52%
    20:00 +5°C° 0 mm 2 mps 760 mmHg 51%
    21:00 +5°C° 0 mm 2 mps 760 mmHg 50%
    22:00 +4°C° 0 mm 2 mps 760 mmHg 49%
    23:00 +4°C° 0 mm 2 mps 760 mmHg 48%

    26 January, Friday

    Time Temperature Precipitation Wind Pressure Humidity
    00:00 +4°C° 0 mm 2 mps 760 mmHg 47%
    01:00 +4°C° 0 mm 2 mps 760 mmHg 47%
    02:00 +4°C° 0 mm 2 mps 760 mmHg 46%
    03:00 +3°C° 0 mm 2 mps 760 mmHg 45%
    04:00 +2°C° 0 mm 3 mps 760 mmHg 44%
    05:00 +2°C° 0 mm 3 mps 760 mmHg 43%
    06:00 +2°C° 0 mm 3 mps 760 mmHg 42%
    07:00 +2°C° 0 mm 3 mps 761 mmHg 41%
    08:00 +4°C° 0 mm 3 mps 761 mmHg 37%
    09:00 +7°C° 0 mm 3 mps 761 mmHg 33%
    10:00 +9°C° 0 mm 3 mps 761 mmHg 29%
    11:00 +9°C° 0 mm 3 mps 761 mmHg 29%
    12:00 +10°C° 0 mm 3 mps 761 mmHg 30%
    13:00 +11°C° 0 mm 3 mps 760 mmHg 30%
    14:00 +10°C° 0 mm 3 mps 760 mmHg 36%
    15:00 +10°C° 0 mm 2 mps 760 mmHg 43%
    16:00 +9°C° 0 mm 2 mps 760 mmHg 49%
    17:00 +8°C° 0 mm 2 mps 761 mmHg 51%
    18:00 +7°C° 0 mm 2 mps 761 mmHg 53%
    19:00 +5°C° 0 mm 2 mps 761 mmHg 55%
    20:00 +5°C° 0 mm 2 mps 762 mmHg 54%
    21:00 +4°C° 0 mm 3 mps 762 mmHg 54%
    22:00 +4°C° 0 mm 3 mps 762 mmHg 53%
    23:00 +4°C° 0 mm 3 mps 762 mmHg 52%
    Show more